This is the latest recevied weather packets stored in our database for station/object SQ6ELQ-11. If no packets are shown the sender has not sent any weather packets the latest 10 day(s).
| Time | Temp. | Humidity | Pressure | Rain* | Wind** | Luminosity | Snow |
|---|---|---|---|---|---|---|---|
| 1777793159 | 17.22° C | 30% | 1018.1 hPa | 0 mm | - | - | - |
| 1777792091 | 17.22° C | 30% | 1018.1 hPa | 0 mm | - | - | - |
| 1777790971 | 16.67° C | 30% | 1018.3 hPa | 0 mm | - | - | - |
| 1777789902 | 16.11° C | 30% | 1018.2 hPa | 0 mm | - | - | - |
| 1777788816 | 16.11° C | 30% | 1018.1 hPa | 0 mm | - | - | - |
| 1777787742 | 15.56° C | 31% | 1018.1 hPa | 0 mm | - | - | - |
| 1777786725 | 15.56° C | 32% | 1018.2 hPa | 0 mm | - | - | - |
| 1777785596 | 14.44° C | 34% | 1018.1 hPa | 0 mm | - | - | - |
| 1777784516 | 13.89° C | 36% | 1018.2 hPa | 0 mm | - | - | - |
| 1777783520 | 13.33° C | 37% | 1018 hPa | 0 mm | - | - | - |
| 1777782456 | 12.78° C | 37% | 1017.9 hPa | 0 mm | - | - | - |
| 1777781376 | 12.78° C | 38% | 1018 hPa | 0 mm | - | - | - |
| 1777780371 | 12.22° C | 38% | 1018 hPa | 0 mm | - | - | - |
| 1777779284 | 11.67° C | 38% | 1018 hPa | 0 mm | - | - | - |
| 1777778267 | 11.67° C | 38% | 1018 hPa | 0 mm | - | - | - |
| 1777777153 | 11.67° C | 37% | 1018 hPa | 0 mm | - | - | - |
| 1777775981 | 12.78° C | 36% | 1018.1 hPa | 0 mm | - | - | - |
| 1777774986 | 12.78° C | 36% | 1018.1 hPa | 0 mm | - | - | - |
| 1777773911 | 12.78° C | 36% | 1018.1 hPa | 0 mm | - | - | - |
| 1777772802 | 12.22° C | 36% | 1018.3 hPa | 0 mm | - | - | - |
| 1777771753 | 12.78° C | 36% | 1018.3 hPa | 0 mm | - | - | - |
| 1777770676 | 12.78° C | 36% | 1018.3 hPa | 0 mm | - | - | - |
| 1777769591 | 12.78° C | 36% | 1018.4 hPa | 0 mm | - | - | - |
| 1777768511 | 13.33° C | 36% | 1018.6 hPa | 0 mm | - | - | - |
| 1777767379 | 13.33° C | 37% | 1018.7 hPa | 0 mm | - | - | - |
* Rain latest hour (hover to see other rain measurements)
** Current wind speed in m/s (hover to see current wind gust speed)